TimeAST,TemperatureF,Dew PointF,Humidity,Sea Level PressureIn,VisibilityMPH,Wind Direction,Wind SpeedMPH,Gust SpeedMPH,PrecipitationIn,Events,Conditions,WindDirDegrees,DateUTC
12:00 AM,80.6,75.2,84,29.92,6.2,ENE,4.6,-,N/A,Rain,Light Rain Showers,60,2012-11-12 04:00:00
1:00 AM,80.6,75.2,84,29.89,6.2,ESE,5.8,-,N/A,,Partly Cloudy,110,2012-11-12 05:00:00
2:00 AM,80,74,77,29.90,25,ESE,3.5,,,,Partly Cloudy,120,2012-11-12 06:00:00
2:00 AM,80.6,73.4,79,29.89,6.2,Variable,3.5,-,N/A,,Mostly Cloudy,0,2012-11-12 06:00:00
3:00 AM,80.6,73.4,79,29.89,6.2,East,4.6,-,N/A,,Mostly Cloudy,80,2012-11-12 07:00:00
4:00 AM,80.6,73.4,79,29.89,6.2,East,6.9,-,N/A,,Scattered Clouds,90,2012-11-12 08:00:00
5:00 AM,81,74,72,29.89,25,East,6.9,,,,Scattered Clouds,90,2012-11-12 09:00:00
5:00 AM,80.6,73.4,79,29.89,6.2,East,5.8,-,N/A,,Partly Cloudy,80,2012-11-12 09:00:00
6:00 AM,80.6,75.2,84,29.89,6.2,East,10.4,-,N/A,,Partly Cloudy,80,2012-11-12 10:00:00
7:00 AM,80.6,75.2,84,29.92,6.2,East,11.5,-,N/A,,Partly Cloudy,90,2012-11-12 11:00:00
8:00 AM,81,74,75,29.95,12,ESE,10.4,,,Rain,Light Rain Showers,110,2012-11-12 12:00:00
8:00 AM,80.6,75.2,84,29.95,6.2,ESE,10.4,-,N/A,Rain,Light Rain Showers,110,2012-11-12 12:00:00
9:00 AM,77.0,75.2,94,29.98,5.6,East,18.4,-,N/A,Rain,Rain Showers,90,2012-11-12 13:00:00
10:00 AM,82.4,75.2,79,29.98,6.2,ESE,13.8,-,N/A,,Unknown,110,2012-11-12 14:00:00
11:00 AM,83,71,59,29.96,25,ESE,9.2,,,,Partly Cloudy,110,2012-11-12 15:00:00
11:00 AM,82.4,71.6,70,29.95,6.2,ESE,9.2,-,N/A,,Unknown,110,2012-11-12 15:00:00
12:00 PM,84.2,73.4,70,29.89,6.2,ESE,11.5,-,N/A,,Unknown,120,2012-11-12 16:00:00
1:00 PM,84.2,71.6,66,29.86,6.2,ESE,9.2,-,N/A,,Unknown,120,2012-11-12 17:00:00
2:00 PM,84,70,55,29.88,25,SE,10.4,,,,Partly Cloudy,130,2012-11-12 18:00:00
2:00 PM,84.2,69.8,62,29.86,6.2,SE,10.4,-,N/A,,Partly Cloudy,130,2012-11-12 18:00:00
3:00 PM,84.2,69.8,62,29.86,6.2,SE,8.1,-,N/A,,Partly Cloudy,130,2012-11-12 19:00:00
4:00 PM,82.4,71.6,70,29.86,6.2,ESE,6.9,-,N/A,,Partly Cloudy,110,2012-11-12 20:00:00
5:00 PM,82,72,63,29.87,28,ESE,6.9,,,,Partly Cloudy,120,2012-11-12 21:00:00
5:00 PM,82.4,71.6,70,29.86,6.2,ESE,6.9,-,N/A,,Scattered Clouds,120,2012-11-12 21:00:00
6:00 PM,82.4,73.4,74,29.86,6.2,ESE,10.4,-,N/A,,Scattered Clouds,110,2012-11-12 22:00:00
7:00 PM,82.4,73.4,74,29.89,6.2,East,10.4,-,N/A,,Scattered Clouds,90,2012-11-12 23:00:00
8:00 PM,82,73,67,29.92,22,East,8.1,,,,Scattered Clouds,100,2012-11-13 00:00:00
8:00 PM,82.4,73.4,74,29.92,6.2,East,8.1,-,N/A,,Partly Cloudy,100,2012-11-13 00:00:00
9:00 PM,82.4,73.4,74,29.92,6.2,East,9.2,-,N/A,,Scattered Clouds,80,2012-11-13 01:00:00
10:00 PM,80.6,73.4,79,29.89,6.2,East,10.4,-,N/A,,Scattered Clouds,90,2012-11-13 02:00:00
11:00 PM,80,74,77,29.93,22,East,9.2,,,Rain,Light Rain Showers,90,2012-11-13 03:00:00
11:00 PM,80.6,73.4,79,29.92,6.2,East,9.2,-,N/A,,Scattered Clouds,90,2012-11-13 03:00:00